EW9994 Weather Reports


time (UTC)temp
C
wind
direction
speed
KPH
gust
KPH
rain 1hr
cm
rain 24hr
cm
rain mn
cm
humidity
%
barometer
mb
20260904134906 33 229 4.8 14.5 0.00 0.00 0.00 43 1018.0
20260904133906 33 262 3.2 9.7 0.00 0.00 0.00 43 1018.1
20260904131907 33 191 4.8 9.7 0.00 0.00 0.00 46 1018.2
20260904130906 33 204 4.8 9.7 0.00 0.00 0.00 46 1018.4
20260904124906 33 207 4.8 12.9 0.00 0.00 0.00 47 1018.5
20260904123907 33 257 3.2 9.7 0.00 0.00 0.00 46 1018.5
20260904121906 33 252 1.6 4.8 0.00 0.00 0.00 45 1018.7
20260904121406 32 246 4.8 11.3 0.00 0.00 0.00 47 1018.8
20260904120408 32 237 9.7 12.9 0.00 0.00 0.00 47 1018.9
20260904114906 32 197 1.6 3.2 0.00 0.00 0.00 51 1018.9
20260904114406 32 197 3.2 4.8 0.00 0.00 0.00 50 1018.9
20260904113906 32 204 4.8 8.0 0.00 0.00 0.00 50 1018.9
20260904111906 32 226 6.4 14.5 0.00 0.00 0.00 48 1019.1
20260904110906 31 229 1.6 4.8 0.00 0.00 0.00 48 1019.2
20260904110406 32 229 4.8 9.7 0.00 0.00 0.00 49 1019.2
20260904103906 31 208 3.2 9.7 0.00 0.00 0.00 51 1019.4
20260904103428 31 217 4.8 9.7 0.00 0.00 0.00 52 1019.4
20260904101406 30 249 4.8 8.0 0.00 0.00 0.00 52 1019.6
20260904100906 30 185 4.8 8.0 0.00 0.00 0.00 55 1019.6
20260904100406 30 216 3.2 8.0 0.00 0.00 0.00 53 1019.7
20260904094906 30 197 3.2 4.8 0.00 0.00 0.00 53 1019.8
20260904094406 29 197 1.6 3.2 0.00 0.00 0.00 54 1019.8
20260904093906 29 197 1.6 4.8 0.00 0.00 0.00 56 1019.8
20260904093406 29 197 3.2 4.8 0.00 0.00 0.00 58 1019.8
20260904091906 28 217 4.8 4.8 0.00 0.00 0.00 60 1019.9
20260904090406 27 236 4.8 8.0 0.00 0.00 0.00 61 1020.1
20260904084906 27 31 4.8 8.0 0.00 0.00 0.00 67 1020.0
20260904084408 27 26 1.6 4.8 0.00 0.00 0.00 68 1019.9
20260904083408 26 26 3.2 4.8 0.00 0.00 0.00 69 1020.0
20260904081906 26 26 3.2 4.8 0.00 0.00 0.00 71 1019.9
20260904081406 26 26 1.6 3.2 0.00 0.00 0.00 71 1019.9
20260904073906 25 26 1.6 4.8 0.00 0.00 0.00 73 1019.7
20260904073408 25 26 1.6 3.2 0.00 0.00 0.00 73 1019.7
20260904071906 25 26 0.0 0.0 0.00 0.00 0.00 73 1019.6
20260904071406 25 26 0.0 0.0 0.00 0.00 0.00 72 1019.5
20260904070407 23 26 0.0 1.6 0.00 0.00 0.00 75 1019.5
20260904063906 21 26 1.6 3.2 0.00 0.00 0.00 80 1019.5
20260904063406 21 25 3.2 4.8 0.00 0.00 0.00 81 1019.5
20260904061906 20 25 4.8 4.8 0.00 0.00 0.00 82 1019.6
20260904061406 20 25 4.8 8.0 0.00 0.00 0.00 83 1019.6
20260904060905 20 26 3.2 8.0 0.00 0.00 0.00 83 1019.6
20260904054905 20 26 4.8 8.0 0.00 0.00 0.00 82 1019.6
20260904054406 20 26 3.2 4.8 0.00 0.00 0.00 82 1019.6
20260904053906 20 25 4.8 4.8 0.00 0.00 0.00 82 1019.5
20260904051906 20 26 6.4 9.7 0.00 0.00 0.00 82 1019.5
20260904051406 20 25 4.8 9.7 0.00 0.00 0.00 82 1019.5
20260904044905 20 26 3.2 4.8 0.00 0.00 0.00 81 1019.4
20260904044405 20 25 4.8 8.0 0.00 0.00 0.00 81 1019.3
20260904040905 20 26 3.2 8.0 0.00 0.00 0.00 81 1019.2
20260904040405 20 26 8.0 11.3 0.00 0.00 0.00 81 1019.2
20260904034405 20 26 4.8 9.7 0.00 0.00 0.00 80 1019.1
20260904033905 20 25 6.4 9.7 0.00 0.00 0.00 80 1019.1
20260904033405 20 26 8.0 12.9 0.00 0.00 0.00 80 1019.1
20260904031905 20 26 8.0 11.3 0.00 0.00 0.00 80 1019.1
20260904024405 21 26 6.4 11.3 0.00 0.00 0.00 79 1019.0
20260904023905 21 26 6.4 11.3 0.00 0.00 0.00 79 1019.0
20260904021405 21 25 4.8 9.7 0.00 0.00 0.00 78 1019.0
20260904013905 21 26 8.0 11.3 0.00 0.00 0.00 78 1019.1
20260904011905 21 26 6.4 9.7 0.00 0.00 0.00 78 1019.1
20260904011406 21 26 4.8 9.7 0.00 0.00 0.00 78 1019.0
20260904010405 21 26 8.0 9.7 0.00 0.00 0.00 77 1019.0
20260904004405 21 26 6.4 9.7 0.00 0.00 0.00 77 1019.0
20260904003905 21 26 8.0 12.9 0.00 0.00 0.00 77 1018.9
20260904003405 21 26 8.0 9.7 0.00 0.00 0.00 77 1018.9
20260904001905 22 26 8.0 9.7 0.00 0.00 0.00 75 1018.9
20260904001406 22 26 6.4 12.9 0.00 0.00 0.00 75 1018.9
20260904000406 22 26 4.8 12.9 0.00 0.00 0.00 75 1018.8
20260903234905 22 26 4.8 8.0 0.00 0.00 0.00 74 1018.8
20260903234405 22 25 8.0 9.7 0.00 0.00 0.00 74 1018.8
20260903231406 22 25 8.0 11.3 0.00 0.00 0.00 73 1018.8
20260903224910 23 25 4.8 9.7 0.00 0.00 0.00 71 1018.8
20260903224405 23 25 4.8 11.3 0.00 0.00 0.00 71 1018.7
20260903221905 23 25 4.8 11.3 0.00 0.00 0.00 70 1018.7
20260903221406 23 25 8.0 9.7 0.00 0.00 0.00 69 1018.6
20260903220905 23 25 6.4 11.3 0.00 0.00 0.00 69 1018.6
20260903213905 23 25 6.4 12.9 0.00 0.00 0.00 69 1018.3
20260903213406 23 25 8.0 12.9 0.00 0.00 0.00 68 1018.3
20260903210905 23 23 6.4 11.3 0.00 0.00 0.00 67 1018.3
20260903203409 24 23 8.0 16.1 0.00 0.00 0.00 67 1018.3
20260903201906 24 23 1.6 4.8 0.00 0.00 0.00 67 1018.2
20260903201406 25 23 4.8 4.8 0.00 0.00 0.00 67 1018.2
20260903200407 25 23 1.6 8.0 0.00 0.00 0.00 66 1018.1
20260903194407 25 23 1.6 4.8 0.00 0.00 0.00 67 1018.0
20260903193407 25 23 1.6 4.8 0.00 0.00 0.00 68 1018.1
20260903191907 25 23 3.2 4.8 0.00 0.00 0.00 67 1017.9
20260903184907 26 25 8.0 12.9 0.00 0.00 0.00 66 1017.7
20260903183406 26 23 9.7 14.5 0.00 0.00 0.00 67 1017.5
20260903181907 26 23 8.0 16.1 0.00 0.00 0.00 67 1017.4
20260903180906 27 26 11.3 19.3 0.00 0.00 0.00 67 1017.3
20260903174906 27 26 11.3 16.1 0.00 0.00 0.00 68 1017.1
20260903173906 27 25 8.0 12.9 0.00 0.00 0.00 68 1016.9
20260903173407 27 26 4.8 16.1 0.00 0.00 0.00 67 1016.9
20260903171407 28 29 9.7 14.5 0.00 0.00 0.00 64 1016.9
20260903170407 30 30 8.0 12.9 0.00 0.00 0.00 60 1016.9
20260903164406 31 249 1.6 4.8 0.00 0.00 0.00 52 1016.9
20260903163906 31 248 4.8 11.3 0.00 0.00 0.00 53 1016.8
20260903163406 31 245 6.4 12.9 0.00 0.00 0.00 52 1016.7
20260903161406 31 244 8.0 14.5 0.00 0.00 0.00 51 1016.8
20260903154907 32 255 8.0 12.9 0.00 0.00 0.00 47 1016.8
20260903154406 32 243 3.2 14.5 0.00 0.00 0.00 46 1016.9
20260903153407 32 246 4.8 19.3 0.00 0.00 0.00 46 1016.8
20260903150906 32 222 8.0 14.5 0.00 0.00 0.00 49 1016.9
20260903144907 32 248 8.0 12.9 0.00 0.00 0.00 49 1017.0